QPF
0.00 0.00 0.00 0.00 0.00 0.01 0.01 0.00 0.00 0.00 0.00 0.00 0.00 0.00 0.00 0.00 0.01 0.03 0.00 0.00 0.00 0.00 0.00 0.00 0.00 0.00 0.00 0.00 0.00 0.00 0.00 0.00 0.00 0.00 0.00 0.00 0.00 0.00 0.00 0.00 0.00 0.00 0.00 0.00 0.00 0.00 0.00 0.00 0.00
0.00 0.00 0.00 0.00 0.01 0.01 0.00 0.00 0.00 0.00 0.00 0.00 0.00 0.00 0.00 0.00 0.00 0.00 0.00 0.00 0.00 0.00 0.00 0.00 0.00 0.00 0.00 0.00 0.00 0.00 0.00 0.00 0.00 0.00 0.00 0.00 0.00 0.00 0.00 0.00 0.00 0.00 0.00 0.00 0.00 0.00 0.00 0.00 0.00
0.00 0.00 0.00 0.00 0.01 0.01 0.00 0.00 0.00 0.00 0.00 0.00 0.00 0.00 0.00 0.00 0.00 0.00 0.00 0.00 0.00 0.00 0.00 0.00 0.00 0.00 0.00 0.00 0.00 0.00 0.00 0.00 0.00 0.00 0.00 0.00 0.00 0.00 0.00 0.00 0.00 0.00 0.00 0.00 0.00 0.00 0.00 0.00 0.00
0.00 0.00 0.00 0.00 0.01 0.00 0.00 0.00 0.00 0.00 0.00 0.00 0.00 0.00 0.00 0.00 0.00 0.00 0.00 0.00 0.00 0.00 0.00 0.00 0.00 0.00 0.00 0.00 0.00 0.00 0.00 0.00 0.00 0.00 0.00 0.00 0.00 0.00 0.00 0.00 0.00 0.00 0.00 0.00 0.00 0.00 0.00 0.00 0.00
0.00 0.00 0.00 0.00 0.00 0.00 0.00 0.00 0.00 0.00 0.00 0.00 0.00 0.00 0.00 0.00 0.00 0.00 0.00 0.00 0.00 0.00 0.00 0.00 0.00 0.00 0.00 0.00 0.00 0.00 0.00 0.00 0.00 0.00 0.00 0.00 0.00 0.00 0.00 0.00 0.00 0.00 0.00 0.00 0.00 0.00 0.00 0.00 0.00
0.00 0.00 0.00 0.00 0.00 0.00 0.00 0.00 0.00 0.00 0.00 0.00 0.00 0.00 0.00 0.00 0.00 0.00 0.00 0.00 0.00 0.00 0.00 0.00 0.00 0.00 0.00 0.00 0.00 0.00 0.00 0.00 0.00 0.00 0.00 0.00 0.00 0.00 0.00 0.00 0.00 0.00 0.00 0.00 0.00 0.00 0.00 0.00 0.00
0.00 0.00 0.00 0.00 0.00 0.00 0.00 0.00 0.00 0.00 0.00 0.00 0.00 0.00 0.00 0.00 0.00 0.00 0.00 0.00 0.00 0.00 0.00 0.00 0.00 0.00 0.00 0.00 0.00 0.00 0.00 0.00 0.00 0.00 0.00 0.00 0.00 0.00 0.00 0.00 0.00 0.00 0.00 0.00 0.00 0.00 0.00 0.00 0.00
0.00 0.00 0.00 0.00 0.00 0.00 0.00 0.00 0.00 0.00 0.00 0.00 0.00 0.00 0.00 0.00 0.00 0.00 0.00 0.00 0.00 0.00 0.00 0.00 0.00 0.00 0.00 0.00 0.00 0.00 0.00 0.00 0.00 0.00 0.00 0.00 0.00 0.00 0.00 0.00 0.00 0.00 0.00 0.00 0.00 0.00 0.00 0.00 0.00
0.00 0.00 0.00 0.00 0.00 0.00 0.00 0.00 0.00 0.00 0.00 0.00 0.00 0.00 0.00 0.00 0.00 0.00 0.00 0.00 0.00 0.00 0.00 0.00 0.00 0.00 0.00 0.00 0.00 0.00 0.00 0.00 0.00 0.00 0.00 0.00 0.00 0.00 0.01 0.00 0.00 0.00 0.00 0.00 0.00 0.00 0.01 0.00 0.00
0.00 0.00 0.00 0.00 0.00 0.00 0.00 0.00 0.00 0.00 0.00 0.00 0.00 0.00 0.00 0.00 0.00 0.00 0.00 0.00 0.00 0.00 0.00 0.00 0.00 0.00 0.00 0.00 0.00 0.00 0.00 0.00 0.00 0.01 0.02 0.01 0.01 0.02 0.01 0.00 0.00 0.00 0.00 0.00 0.00 0.01 0.01 0.01 0.04
0.00 0.00 0.00 0.00 0.00 0.00 0.00 0.00 0.00 0.00 0.00 0.00 0.00 0.00 0.00 0.00 0.00 0.00 0.00 0.00 0.00 0.00 0.00 0.00 0.00 0.00 0.00 0.00 0.00 0.00 0.00 0.01 0.01 0.01 0.04 0.06 0.04 0.01 0.00 0.00 0.01 0.01 0.01 0.02 0.04 0.04 0.03 0.07 0.10
0.00 0.00 0.00 0.00 0.00 0.00 0.00 0.00 0.00 0.00 0.00 0.00 0.00 0.00 0.00 0.00 0.00 0.00 0.00 0.00 0.00 0.00 0.00 0.00 0.00 0.00 0.00 0.00 0.00 0.00 0.00 0.00 0.00 0.01 0.01 0.04 0.04 0.02 0.01 0.00 0.01 0.03 0.04 0.03 0.03 0.08 0.05 0.05 0.05
0.00 0.00 0.00 0.00 0.00 0.00 0.00 0.00 0.00 0.00 0.00 0.00 0.00 0.00 0.00 0.00 0.00 0.00 0.00 0.00 0.00 0.00 0.00 0.00 0.00 0.00 0.00 0.00 0.00 0.00 0.00 0.00 0.00 0.01 0.02 0.03 0.03 0.02 0.01 0.01 0.01 0.00 0.01 0.02 0.04 0.02 0.04 0.04 0.02
0.00 0.00 0.00 0.00 0.00 0.00 0.00 0.00 0.00 0.00 0.00 0.00 0.00 0.00 0.00 0.00 0.00 0.00 0.00 0.00 0.00 0.00 0.00 0.00 0.00 0.00 0.00 0.00 0.00 0.00 0.00 0.00 0.00 0.00 0.00 0.01 0.01 0.02 0.02 0.02 0.03 0.01 0.01 0.02 0.05 0.03 0.07 0.03 0.02
0.00 0.00 0.00 0.00 0.00 0.00 0.00 0.00 0.00 0.00 0.00 0.00 0.00 0.00 0.00 0.00 0.00 0.00 0.00 0.00 0.00 0.00 0.00 0.00 0.00 0.00 0.00 0.00 0.00 0.00 0.00 0.00 0.00 0.00 0.00 0.00 0.00 0.01 0.02 0.03 0.03 0.03 0.03 0.04 0.03 0.03 0.05 0.05 0.04
0.00 0.00 0.00 0.00 0.00 0.00 0.00 0.00 0.00 0.00 0.00 0.00 0.00 0.00 0.00 0.00 0.00 0.00 0.00 0.00 0.00 0.00 0.00 0.00 0.00 0.00 0.00 0.00 0.00 0.00 0.00 0.00 0.00 0.00 0.00 0.00 0.01 0.02 0.02 0.03 0.03 0.04 0.03 0.04 0.08 0.06 0.08 0.11 0.07
0.00 0.00 0.00 0.00 0.00 0.00 0.00 0.00 0.00 0.00 0.00 0.00 0.00 0.00 0.00 0.00 0.00 0.00 0.00 0.00 0.00 0.00 0.00 0.00 0.00 0.01 0.02 0.02 0.01 0.00 0.00 0.00 0.01 0.01 0.02 0.02 0.02 0.02 0.04 0.04 0.06 0.06 0.06 0.07 0.06 0.10 0.13 0.15 0.14
0.00 0.00 0.00 0.00 0.00 0.00 0.00 0.00 0.00 0.00 0.00 0.00 0.00 0.00 0.00 0.00 0.00 0.00 0.00 0.00 0.00 0.00 0.00 0.01 0.04 0.05 0.07 0.09 0.08 0.05 0.04 0.02 0.02 0.01 0.02 0.03 0.04 0.06 0.08 0.06 0.08 0.11 0.13 0.13 0.14 0.18 0.17 0.17 0.17
0.00 0.00 0.00 0.00 0.00 0.00 0.00 0.00 0.00 0.00 0.00 0.00 0.00 0.00 0.00 0.00 0.00 0.00 0.00 0.01 0.00 0.00 0.02 0.07 0.15 0.20 0.21 0.21 0.17 0.15 0.13 0.12 0.08 0.05 0.05 0.07 0.09 0.12 0.16 0.13 0.19 0.19 0.20 0.22 0.21 0.23 0.23 0.22 0.23
0.00 0.00 0.00 0.00 0.00 0.00 0.00 0.00 0.00 0.00 0.00 0.00 0.00 0.00 0.00 0.00 0.00 0.00 0.00 0.00 0.00 0.02 0.04 0.11 0.19 0.25 0.25 0.27 0.28 0.28 0.29 0.21 0.14 0.13 0.13 0.12 0.16 0.18 0.19 0.22 0.23 0.25 0.27 0.27 0.27 0.30 0.29 0.29 0.31
0.00 0.00 0.00 0.00 0.00 0.00 0.00 0.00 0.00 0.00 0.00 0.00 0.00 0.00 0.00 0.00 0.00 0.00 0.00 0.00 0.01 0.02 0.05 0.08 0.14 0.21 0.25 0.28 0.29 0.26 0.28 0.18 0.19 0.18 0.20 0.20 0.24 0.25 0.24 0.28 0.27 0.28 0.29 0.27 0.30 0.32 0.33 0.33 0.34
0.00 0.00 0.00 0.00 0.00 0.00 0.00 0.00 0.00 0.00 0.00 0.00 0.00 0.01 0.01 0.01 0.00 0.00 0.00 0.01 0.01 0.01 0.02 0.04 0.08 0.12 0.17 0.22 0.22 0.22 0.22 0.19 0.24 0.31 0.31 0.27 0.25 0.24 0.24 0.26 0.27 0.27 0.29 0.28 0.29 0.30 0.32 0.33 0.35
0.00 0.00 0.00 0.00 0.00 0.00 0.00 0.00 0.00 0.00 0.00 0.00 0.01 0.03 0.02 0.01 0.00 0.00 0.00 0.01 0.01 0.01 0.01 0.01 0.04 0.06 0.11 0.14 0.17 0.20 0.21 0.23 0.27 0.33 0.32 0.28 0.27 0.23 0.20 0.21 0.20 0.21 0.22 0.25 0.28 0.31 0.35 0.36 0.36
0.00 0.00 0.00 0.00 0.00 0.00 0.00 0.00 0.00 0.00 0.00 0.00 0.01 0.01 0.00 0.00 0.00 0.00 0.00 0.00 0.00 0.00 0.00 0.00 0.01 0.04 0.06 0.08 0.11 0.13 0.14 0.17 0.19 0.22 0.26 0.26 0.26 0.22 0.18 0.19 0.21 0.21 0.22 0.25 0.29 0.31 0.35 0.37 0.35
0.00 0.00 0.00 0.00 0.00 0.00 0.00 0.00 0.00 0.00 0.00 0.00 0.00 0.00 0.00 0.00 0.00 0.00 0.00 0.00 0.00 0.00 0.00 0.00 0.01 0.02 0.03 0.05 0.08 0.09 0.11 0.12 0.13 0.18 0.23 0.24 0.24 0.22 0.20 0.20 0.21 0.21 0.24 0.29 0.34 0.38 0.40 0.42 0.40
0.00 0.00 0.00 0.00 0.00 0.00 0.00 0.00 0.00 0.00 0.00 0.00 0.00 0.00 0.00 0.00 0.00 0.00 0.00 0.00 0.00 0.00 0.00 0.00 0.01 0.02 0.03 0.05 0.06 0.07 0.09 0.10 0.12 0.16 0.18 0.21 0.20 0.20 0.22 0.22 0.22 0.22 0.24 0.29 0.36 0.43 0.46 0.44 0.42
0.00 0.00 0.00 0.00 0.00 0.00 0.00 0.00 0.00 0.00 0.00 0.00 0.00 0.00 0.00 0.00 0.00 0.00 0.00 0.00 0.00 0.00 0.00 0.01 0.01 0.02 0.03 0.04 0.05 0.06 0.07 0.09 0.10 0.13 0.15 0.18 0.18 0.18 0.19 0.22 0.23 0.25 0.29 0.34 0.36 0.39 0.41 0.40 0.36
0.00 0.00 0.00 0.00 0.00 0.00 0.00 0.00 0.00 0.00 0.00 0.00 0.00 0.00 0.00 0.00 0.00 0.00 0.00 0.00 0.00 0.00 0.00 0.00 0.01 0.02 0.02 0.03 0.04 0.06 0.09 0.11 0.13 0.15 0.17 0.21 0.23 0.23 0.22 0.26 0.31 0.35 0.38 0.40 0.39 0.38 0.36 0.31 0.28
0.00 0.00 0.00 0.00 0.00 0.00 0.00 0.00 0.00 0.00 0.00 0.00 0.00 0.00 0.00 0.00 0.00 0.00 0.00 0.00 0.00 0.00 0.00 0.00 0.01 0.02 0.03 0.03 0.04 0.07 0.09 0.11 0.15 0.19 0.21 0.25 0.26 0.28 0.32 0.36 0.37 0.37 0.38 0.37 0.36 0.37 0.35 0.31 0.27
0.00 0.00 0.00 0.00 0.00 0.00 0.00 0.00 0.00 0.00 0.00 0.00 0.00 0.00 0.00 0.00 0.00 0.00 0.00 0.00 0.00 0.00 0.00 0.01 0.01 0.02 0.03 0.03 0.04 0.07 0.09 0.11 0.13 0.16 0.20 0.25 0.25 0.27 0.32 0.35 0.41 0.45 0.44 0.40 0.35 0.32 0.29 0.26 0.22
MSLP
1007.42 1007.98 1008.58 1009.08 1009.35 1009.31 1008.96 1008.38 1007.69 1007.06 1006.60 1006.40 1006.47 1006.74 1007.12 1007.49 1007.77 1007.93 1007.98 1008.00 1008.09 1008.34 1008.78 1009.42 1010.20 1011.01 1011.74 1012.31 1012.67 1012.85 1012.89 1012.89 1012.94 1013.09 1013.38 1013.77 1014.21 1014.64 1014.99 1015.22 1015.33 1015.36 1015.34 1015.33 1015.35 1015.43 1015.55 1015.69 1015.80
1007.54 1008.14 1008.74 1009.20 1009.39 1009.26 1008.83 1008.18 1007.45 1006.79 1006.33 1006.12 1006.18 1006.43 1006.77 1007.11 1007.35 1007.49 1007.56 1007.64 1007.82 1008.17 1008.74 1009.50 1010.37 1011.24 1012.00 1012.56 1012.90 1013.04 1013.04 1013.01 1013.04 1013.18 1013.47 1013.86 1014.30 1014.71 1015.05 1015.26 1015.35 1015.36 1015.35 1015.35 1015.40 1015.51 1015.66 1015.82 1015.94
1007.73 1008.35 1008.92 1009.30 1009.39 1009.16 1008.63 1007.92 1007.16 1006.50 1006.05 1005.87 1005.93 1006.17 1006.49 1006.78 1007.00 1007.12 1007.19 1007.31 1007.55 1007.99 1008.65 1009.49 1010.43 1011.35 1012.13 1012.71 1013.05 1013.18 1013.18 1013.14 1013.17 1013.31 1013.59 1013.96 1014.37 1014.75 1015.04 1015.21 1015.28 1015.28 1015.28 1015.31 1015.40 1015.56 1015.75 1015.94 1016.07
1007.97 1008.58 1009.08 1009.36 1009.34 1009.00 1008.39 1007.64 1006.87 1006.23 1005.82 1005.67 1005.76 1006.00 1006.29 1006.56 1006.74 1006.84 1006.91 1007.04 1007.31 1007.80 1008.51 1009.40 1010.38 1011.33 1012.14 1012.73 1013.09 1013.24 1013.27 1013.26 1013.31 1013.46 1013.73 1014.07 1014.43 1014.75 1014.99 1015.11 1015.16 1015.16 1015.17 1015.24 1015.38 1015.59 1015.83 1016.05 1016.19
1008.23 1008.78 1009.19 1009.35 1009.21 1008.78 1008.11 1007.34 1006.60 1006.01 1005.66 1005.56 1005.68 1005.94 1006.23 1006.47 1006.62 1006.70 1006.75 1006.88 1007.17 1007.66 1008.38 1009.28 1010.26 1011.21 1012.02 1012.63 1013.02 1013.21 1013.29 1013.33 1013.42 1013.59 1013.85 1014.17 1014.48 1014.75 1014.92 1015.00 1015.01 1015.01 1015.04 1015.15 1015.34 1015.60 1015.88 1016.12 1016.27
1008.45 1008.91 1009.21 1009.25 1009.00 1008.49 1007.80 1007.04 1006.35 1005.84 1005.57 1005.54 1005.72 1005.99 1006.29 1006.52 1006.65 1006.71 1006.75 1006.87 1007.14 1007.62 1008.31 1009.17 1010.12 1011.03 1011.82 1012.43 1012.84 1013.08 1013.22 1013.32 1013.46 1013.66 1013.93 1014.22 1014.49 1014.71 1014.83 1014.87 1014.86 1014.85 1014.90 1015.04 1015.27 1015.56 1015.86 1016.12 1016.26
1008.60 1008.95 1009.11 1009.03 1008.70 1008.14 1007.46 1006.75 1006.14 1005.73 1005.55 1005.60 1005.83 1006.14 1006.44 1006.68 1006.81 1006.86 1006.89 1007.00 1007.24 1007.69 1008.32 1009.12 1009.99 1010.83 1011.57 1012.16 1012.57 1012.84 1013.03 1013.19 1013.38 1013.62 1013.90 1014.19 1014.43 1014.61 1014.69 1014.70 1014.68 1014.67 1014.73 1014.89 1015.13 1015.43 1015.74 1015.98 1016.11
1008.66 1008.87 1008.91 1008.73 1008.33 1007.76 1007.11 1006.48 1005.96 1005.65 1005.57 1005.70 1005.97 1006.31 1006.63 1006.87 1007.01 1007.07 1007.11 1007.21 1007.43 1007.83 1008.40 1009.11 1009.88 1010.63 1011.29 1011.82 1012.22 1012.50 1012.72 1012.93 1013.16 1013.44 1013.74 1014.02 1014.26 1014.42 1014.48 1014.48 1014.45 1014.44 1014.51 1014.66 1014.90 1015.19 1015.47 1015.68 1015.78
1008.63 1008.71 1008.63 1008.36 1007.93 1007.38 1006.78 1006.24 1005.82 1005.61 1005.60 1005.78 1006.09 1006.44 1006.77 1007.01 1007.16 1007.24 1007.30 1007.41 1007.63 1007.99 1008.49 1009.10 1009.77 1010.41 1010.98 1011.44 1011.79 1012.06 1012.29 1012.52 1012.79 1013.09 1013.41 1013.71 1013.94 1014.10 1014.17 1014.16 1014.14 1014.14 1014.20 1014.35 1014.56 1014.81 1015.05 1015.22 1015.27
1008.54 1008.50 1008.33 1008.00 1007.56 1007.04 1006.51 1006.05 1005.72 1005.58 1005.62 1005.81 1006.12 1006.46 1006.77 1007.02 1007.18 1007.29 1007.37 1007.50 1007.72 1008.06 1008.50 1009.04 1009.60 1010.14 1010.61 1011.00 1011.29 1011.54 1011.75 1011.99 1012.27 1012.59 1012.91 1013.22 1013.47 1013.64 1013.72 1013.74 1013.73 1013.74 1013.80 1013.93 1014.12 1014.33 1014.51 1014.62 1014.63
1008.43 1008.30 1008.06 1007.70 1007.27 1006.79 1006.33 1005.94 1005.67 1005.56 1005.60 1005.78 1006.04 1006.33 1006.61 1006.84 1007.00 1007.13 1007.24 1007.40 1007.63 1007.95 1008.37 1008.84 1009.33 1009.79 1010.18 1010.50 1010.74 1010.95 1011.15 1011.37 1011.64 1011.95 1012.28 1012.59 1012.85 1013.04 1013.16 1013.21 1013.23 1013.26 1013.32 1013.44 1013.60 1013.76 1013.90 1013.96 1013.92
1008.35 1008.16 1007.87 1007.51 1007.10 1006.68 1006.27 1005.93 1005.69 1005.57 1005.57 1005.68 1005.87 1006.08 1006.29 1006.47 1006.62 1006.75 1006.89 1007.07 1007.32 1007.65 1008.05 1008.49 1008.93 1009.34 1009.69 1009.96 1010.17 1010.34 1010.50 1010.70 1010.94 1011.23 1011.54 1011.85 1012.12 1012.33 1012.48 1012.57 1012.63 1012.69 1012.77 1012.89 1013.03 1013.18 1013.28 1013.31 1013.25
1008.34 1008.12 1007.82 1007.47 1007.09 1006.71 1006.34 1006.03 1005.78 1005.62 1005.55 1005.56 1005.64 1005.75 1005.87 1005.99 1006.10 1006.22 1006.36 1006.56 1006.82 1007.16 1007.56 1007.99 1008.43 1008.82 1009.15 1009.41 1009.60 1009.75 1009.88 1010.04 1010.24 1010.48 1010.76 1011.05 1011.32 1011.55 1011.73 1011.87 1011.98 1012.08 1012.19 1012.33 1012.47 1012.61 1012.71 1012.74 1012.67
1008.43 1008.19 1007.90 1007.58 1007.23 1006.88 1006.54 1006.22 1005.94 1005.72 1005.56 1005.47 1005.43 1005.44 1005.47 1005.51 1005.58 1005.67 1005.80 1005.99 1006.25 1006.59 1006.99 1007.44 1007.88 1008.29 1008.64 1008.91 1009.10 1009.24 1009.35 1009.46 1009.60 1009.79 1010.01 1010.26 1010.52 1010.76 1010.97 1011.15 1011.31 1011.47 1011.62 1011.79 1011.96 1012.12 1012.23 1012.28 1012.25
1008.61 1008.37 1008.10 1007.80 1007.49 1007.16 1006.82 1006.49 1006.17 1005.88 1005.64 1005.46 1005.32 1005.24 1005.20 1005.19 1005.20 1005.26 1005.36 1005.53 1005.77 1006.09 1006.49 1006.93 1007.39 1007.83 1008.21 1008.51 1008.72 1008.86 1008.95 1009.01 1009.09 1009.20 1009.35 1009.54 1009.77 1010.01 1010.24 1010.47 1010.68 1010.89 1011.09 1011.30 1011.51 1011.70 1011.86 1011.96 1011.98
1008.85 1008.63 1008.38 1008.10 1007.81 1007.49 1007.15 1006.80 1006.44 1006.10 1005.80 1005.55 1005.37 1005.24 1005.16 1005.12 1005.11 1005.14 1005.21 1005.33 1005.53 1005.81 1006.18 1006.61 1007.07 1007.53 1007.94 1008.27 1008.50 1008.64 1008.70 1008.71 1008.71 1008.74 1008.81 1008.93 1009.12 1009.34 1009.59 1009.85 1010.11 1010.37 1010.63 1010.88 1011.14 1011.38 1011.59 1011.75 1011.83
1009.14 1008.93 1008.69 1008.44 1008.16 1007.84 1007.49 1007.12 1006.73 1006.35 1006.03 1005.76 1005.57 1005.45 1005.39 1005.37 1005.37 1005.38 1005.42 1005.50 1005.63 1005.85 1006.15 1006.53 1006.97 1007.43 1007.85 1008.20 1008.44 1008.57 1008.60 1008.56 1008.48 1008.41 1008.39 1008.45 1008.58 1008.78 1009.03 1009.32 1009.62 1009.93 1010.23 1010.54 1010.83 1011.12 1011.38 1011.60 1011.76
1009.42 1009.22 1009.01 1008.78 1008.51 1008.20 1007.83 1007.43 1007.02 1006.63 1006.30 1006.06 1005.91 1005.86 1005.86 1005.90 1005.95 1005.98 1006.00 1006.03 1006.09 1006.22 1006.43 1006.74 1007.12 1007.53 1007.94 1008.28 1008.52 1008.63 1008.62 1008.52 1008.36 1008.20 1008.09 1008.07 1008.14 1008.31 1008.56 1008.87 1009.20 1009.55 1009.90 1010.24 1010.57 1010.90 1011.21 1011.48 1011.70
1009.67 1009.50 1009.33 1009.12 1008.87 1008.55 1008.17 1007.74 1007.31 1006.91 1006.60 1006.40 1006.33 1006.37 1006.48 1006.62 1006.75 1006.83 1006.85 1006.84 1006.83 1006.85 1006.96 1007.16 1007.45 1007.79 1008.15 1008.46 1008.67 1008.75 1008.70 1008.54 1008.30 1008.06 1007.87 1007.76 1007.77 1007.90 1008.14 1008.46 1008.82 1009.19 1009.58 1009.95 1010.32 1010.67 1011.02 1011.34 1011.61
1009.88 1009.77 1009.66 1009.50 1009.27 1008.95 1008.55 1008.09 1007.62 1007.20 1006.89 1006.74 1006.75 1006.89 1007.12 1007.38 1007.61 1007.75 1007.80 1007.77 1007.69 1007.62 1007.60 1007.68 1007.86 1008.11 1008.40 1008.65 1008.83 1008.87 1008.78 1008.56 1008.26 1007.94 1007.66 1007.48 1007.43 1007.51 1007.73 1008.04 1008.41 1008.81 1009.22 1009.63 1010.02 1010.41 1010.78 1011.14 1011.45
1010.07 1010.05 1010.02 1009.94 1009.76 1009.45 1009.02 1008.51 1007.99 1007.52 1007.19 1007.05 1007.10 1007.32 1007.65 1008.02 1008.34 1008.56 1008.65 1008.61 1008.49 1008.33 1008.21 1008.17 1008.24 1008.39 1008.60 1008.80 1008.92 1008.93 1008.80 1008.54 1008.18 1007.80 1007.44 1007.19 1007.06 1007.09 1007.26 1007.55 1007.92 1008.34 1008.77 1009.21 1009.63 1010.05 1010.46 1010.85 1011.21
1010.26 1010.37 1010.47 1010.49 1010.37 1010.08 1009.63 1009.06 1008.45 1007.90 1007.50 1007.31 1007.35 1007.59 1007.97 1008.41 1008.82 1009.10 1009.24 1009.21 1009.06 1008.85 1008.65 1008.52 1008.48 1008.55 1008.68 1008.82 1008.91 1008.90 1008.74 1008.45 1008.05 1007.61 1007.19 1006.85 1006.64 1006.59 1006.70 1006.95 1007.30 1007.72 1008.18 1008.65 1009.11 1009.58 1010.03 1010.47 1010.86
1010.47 1010.75 1011.00 1011.14 1011.11 1010.85 1010.38 1009.75 1009.04 1008.37 1007.85 1007.55 1007.51 1007.70 1008.07 1008.53 1008.97 1009.31 1009.48 1009.47 1009.33 1009.09 1008.84 1008.65 1008.55 1008.55 1008.63 1008.74 1008.80 1008.77 1008.61 1008.31 1007.88 1007.39 1006.90 1006.47 1006.17 1006.02 1006.05 1006.23 1006.54 1006.95 1007.42 1007.92 1008.44 1008.97 1009.48 1009.98 1010.43
1010.73 1011.18 1011.60 1011.88 1011.94 1011.73 1011.25 1010.55 1009.73 1008.92 1008.24 1007.79 1007.60 1007.69 1007.98 1008.40 1008.83 1009.18 1009.38 1009.41 1009.28 1009.06 1008.80 1008.58 1008.45 1008.42 1008.47 1008.56 1008.62 1008.60 1008.45 1008.14 1007.71 1007.18 1006.62 1006.10 1005.69 1005.43 1005.34 1005.43 1005.67 1006.05 1006.52 1007.06 1007.64 1008.23 1008.83 1009.40 1009.92
1011.02 1011.63 1012.20 1012.62 1012.78 1012.62 1012.14 1011.39 1010.48 1009.52 1008.68 1008.04 1007.68 1007.60 1007.77 1008.10 1008.48 1008.82 1009.04 1009.10 1009.01 1008.82 1008.58 1008.37 1008.24 1008.21 1008.26 1008.35 1008.43 1008.43 1008.30 1008.01 1007.57 1007.02 1006.41 1005.80 1005.28 1004.88 1004.66 1004.63 1004.79 1005.10 1005.56 1006.12 1006.75 1007.43 1008.11 1008.76 1009.36
1011.31 1012.04 1012.73 1013.25 1013.49 1013.38 1012.92 1012.15 1011.16 1010.10 1009.10 1008.30 1007.76 1007.51 1007.53 1007.74 1008.05 1008.35 1008.57 1008.66 1008.62 1008.49 1008.30 1008.13 1008.02 1008.00 1008.06 1008.17 1008.28 1008.31 1008.21 1007.95 1007.53 1006.97 1006.31 1005.64 1005.00 1004.48 1004.12 1003.96 1004.00 1004.24 1004.66 1005.22 1005.89 1006.63 1007.38 1008.12 1008.80
1011.57 1012.34 1013.07 1013.64 1013.93 1013.87 1013.44 1012.67 1011.67 1010.55 1009.45 1008.52 1007.83 1007.43 1007.30 1007.39 1007.62 1007.88 1008.10 1008.23 1008.24 1008.17 1008.04 1007.92 1007.85 1007.86 1007.94 1008.07 1008.20 1008.26 1008.21 1007.99 1007.60 1007.05 1006.39 1005.66 1004.95 1004.32 1003.83 1003.54 1003.46 1003.61 1003.96 1004.49 1005.17 1005.94 1006.75 1007.55 1008.28
1011.72 1012.44 1013.14 1013.69 1013.99 1013.96 1013.57 1012.85 1011.88 1010.76 1009.65 1008.65 1007.87 1007.36 1007.12 1007.11 1007.27 1007.49 1007.71 1007.87 1007.94 1007.93 1007.87 1007.81 1007.78 1007.81 1007.91 1008.05 1008.20 1008.29 1008.28 1008.12 1007.78 1007.28 1006.64 1005.91 1005.16 1004.46 1003.88 1003.47 1003.28 1003.32 1003.59 1004.07 1004.71 1005.48 1006.30 1007.12 1007.89
1011.72 1012.31 1012.88 1013.35 1013.61 1013.58 1013.24 1012.60 1011.71 1010.67 1009.60 1008.62 1007.83 1007.27 1006.97 1006.89 1006.99 1007.19 1007.41 1007.60 1007.73 1007.79 1007.79 1007.78 1007.79 1007.84 1007.94 1008.09 1008.24 1008.36 1008.39 1008.30 1008.04 1007.62 1007.05 1006.37 1005.65 1004.94 1004.31 1003.83 1003.54 1003.48 1003.66 1004.04 1004.62 1005.33 1006.12 1006.92 1007.68
1011.57 1011.94 1012.33 1012.65 1012.83 1012.79 1012.50 1011.95 1011.18 1010.27 1009.31 1008.42 1007.67 1007.11 1006.79 1006.68 1006.75 1006.94 1007.17 1007.39 1007.57 1007.69 1007.75 1007.79 1007.83 1007.89 1007.99 1008.13 1008.28 1008.41 1008.49 1008.46 1008.30 1008.00 1007.55 1006.98 1006.33 1005.68 1005.06 1004.56 1004.22 1004.08 1004.15 1004.44 1004.91 1005.53 1006.24 1006.98 1007.68
Thickness
5862 5866 5869 5863 5844 5834 5842 5858 5867 5865 5869 5879 5881 5879 5871 5859 5845 5834 5868 5879 5873 5860 5849 5842 5837 5832 5828 5824 5821 5817 5814 5811 5807 5803 5800 5797 5793 5791 5788 5785 5783 5781 5778 5776 5773 5771 5769 5767 5765
5868 5875 5871 5856 5830 5816 5839 5860 5859 5864 5874 5884 5883 5882 5874 5863 5872 5868 5873 5877 5871 5859 5849 5843 5836 5831 5827 5823 5820 5817 5814 5811 5807 5804 5800 5797 5794 5791 5788 5785 5783 5781 5778 5776 5774 5771 5769 5767 5765
5870 5875 5860 5852 5835 5828 5842 5862 5867 5878 5887 5886 5879 5880 5870 5861 5873 5874 5876 5878 5869 5858 5850 5842 5836 5831 5827 5823 5820 5817 5814 5811 5807 5804 5801 5798 5794 5791 5788 5786 5783 5781 5779 5776 5774 5772 5769 5767 5765
5872 5872 5863 5852 5843 5861 5866 5872 5881 5880 5884 5888 5884 5872 5868 5874 5880 5882 5881 5878 5868 5859 5850 5840 5835 5830 5826 5822 5819 5816 5813 5810 5807 5804 5801 5798 5795 5792 5789 5786 5784 5781 5779 5777 5775 5773 5770 5768 5766
5874 5860 5851 5845 5850 5871 5881 5886 5887 5875 5875 5881 5880 5863 5857 5875 5886 5884 5880 5878 5870 5862 5850 5840 5834 5830 5825 5822 5818 5815 5813 5810 5807 5804 5801 5798 5795 5792 5790 5787 5784 5782 5780 5777 5775 5773 5771 5769 5767
5858 5860 5841 5835 5849 5873 5883 5890 5886 5878 5877 5881 5880 5864 5857 5877 5879 5879 5881 5878 5875 5865 5851 5840 5834 5829 5825 5821 5818 5815 5812 5809 5807 5804 5801 5798 5795 5793 5790 5787 5785 5782 5780 5778 5776 5774 5772 5770 5768
5848 5845 5839 5847 5851 5863 5878 5892 5882 5874 5871 5875 5883 5865 5859 5870 5877 5880 5878 5877 5877 5868 5853 5841 5835 5829 5825 5821 5818 5814 5812 5809 5806 5803 5800 5797 5795 5792 5790 5788 5785 5783 5780 5778 5776 5774 5773 5771 5770
5862 5848 5843 5855 5856 5860 5882 5890 5887 5878 5870 5885 5886 5866 5855 5868 5877 5877 5873 5873 5873 5866 5855 5844 5838 5831 5826 5821 5817 5814 5811 5808 5805 5803 5800 5797 5795 5792 5790 5788 5785 5783 5781 5779 5777 5775 5774 5772 5771
5863 5837 5834 5851 5857 5864 5880 5878 5882 5890 5882 5880 5883 5879 5877 5878 5876 5869 5862 5863 5863 5861 5855 5848 5842 5834 5829 5825 5820 5814 5811 5808 5805 5802 5800 5797 5796 5794 5792 5790 5788 5785 5782 5780 5778 5777 5775 5774 5773
5854 5833 5846 5865 5870 5869 5872 5871 5877 5878 5873 5872 5876 5879 5881 5875 5869 5860 5854 5853 5853 5853 5853 5851 5847 5839 5834 5831 5824 5817 5813 5810 5806 5805 5802 5798 5798 5798 5797 5795 5791 5787 5784 5781 5780 5778 5776 5775 5775
5852 5842 5858 5870 5875 5873 5869 5873 5882 5873 5864 5867 5868 5871 5874 5868 5863 5859 5855 5854 5854 5853 5852 5851 5850 5843 5839 5835 5828 5822 5819 5816 5810 5807 5805 5802 5800 5800 5800 5798 5792 5788 5785 5782 5782 5779 5777 5778 5778
5849 5853 5863 5866 5873 5869 5865 5870 5872 5872 5871 5880 5879 5878 5873 5865 5862 5859 5856 5856 5856 5853 5850 5850 5848 5843 5839 5837 5833 5828 5824 5821 5817 5811 5808 5804 5801 5802 5802 5800 5796 5791 5788 5786 5785 5783 5782 5781 5781
5843 5847 5859 5866 5868 5867 5867 5865 5866 5870 5881 5885 5882 5877 5873 5868 5866 5864 5863 5859 5858 5853 5850 5848 5845 5841 5836 5833 5831 5829 5825 5824 5820 5817 5811 5807 5803 5800 5800 5799 5797 5794 5791 5789 5786 5785 5784 5782 5782
5842 5848 5853 5859 5860 5863 5858 5861 5864 5869 5880 5876 5873 5870 5871 5870 5867 5863 5860 5856 5855 5852 5849 5847 5842 5838 5833 5827 5824 5824 5824 5821 5819 5817 5813 5808 5804 5801 5798 5796 5793 5791 5789 5788 5786 5784 5781 5779 5779
5839 5831 5837 5848 5855 5858 5855 5844 5856 5873 5873 5866 5867 5867 5867 5867 5866 5861 5859 5856 5853 5851 5849 5844 5839 5835 5828 5822 5819 5818 5817 5817 5816 5814 5812 5808 5804 5800 5796 5793 5790 5788 5786 5784 5782 5780 5778 5776 5775
5826 5818 5815 5843 5854 5855 5837 5820 5854 5872 5862 5854 5857 5860 5858 5858 5859 5859 5858 5854 5851 5848 5844 5841 5837 5831 5824 5818 5814 5813 5813 5812 5812 5811 5809 5806 5802 5798 5793 5790 5787 5786 5784 5782 5778 5775 5771 5769 5768
5812 5806 5815 5838 5853 5843 5830 5821 5848 5859 5852 5844 5846 5848 5848 5847 5847 5850 5850 5848 5845 5842 5837 5833 5830 5825 5819 5813 5809 5806 5807 5807 5807 5806 5804 5802 5799 5794 5789 5786 5784 5781 5779 5776 5774 5770 5766 5762 5761
5802 5815 5824 5832 5845 5834 5818 5818 5839 5853 5845 5836 5836 5836 5833 5831 5831 5836 5837 5836 5833 5832 5829 5825 5820 5815 5811 5807 5802 5799 5798 5799 5800 5799 5797 5796 5793 5790 5786 5782 5778 5775 5771 5769 5766 5761 5759 5756 5753
5802 5802 5804 5818 5838 5823 5808 5809 5824 5841 5838 5829 5823 5821 5817 5815 5819 5821 5821 5820 5818 5816 5814 5811 5806 5803 5798 5794 5790 5788 5787 5788 5790 5792 5792 5790 5787 5784 5780 5775 5772 5768 5763 5761 5759 5754 5750 5747 5745
5794 5791 5796 5812 5827 5815 5802 5803 5820 5831 5829 5826 5818 5810 5805 5801 5800 5801 5801 5801 5799 5797 5796 5795 5791 5789 5787 5785 5783 5782 5781 5781 5783 5783 5784 5784 5781 5778 5773 5768 5765 5762 5757 5754 5752 5748 5743 5740 5738
5792 5792 5795 5796 5806 5808 5799 5794 5810 5826 5829 5822 5813 5804 5798 5792 5787 5785 5784 5783 5784 5783 5782 5782 5779 5778 5777 5776 5775 5773 5772 5772 5773 5774 5773 5774 5773 5771 5768 5763 5760 5758 5753 5748 5746 5743 5738 5733 5733
5780 5797 5792 5786 5777 5775 5784 5767 5797 5817 5814 5805 5795 5787 5782 5781 5779 5776 5773 5771 5771 5772 5773 5772 5770 5768 5767 5766 5764 5761 5759 5758 5763 5765 5765 5765 5765 5764 5762 5758 5755 5752 5749 5746 5743 5740 5736 5730 5725
5781 5790 5784 5779 5771 5766 5776 5767 5786 5812 5797 5785 5779 5775 5774 5774 5773 5769 5766 5764 5763 5763 5763 5762 5760 5758 5757 5756 5754 5752 5752 5753 5756 5757 5756 5756 5756 5756 5755 5753 5750 5747 5744 5742 5739 5735 5732 5728 5723
5785 5779 5777 5779 5773 5753 5770 5762 5768 5782 5781 5777 5774 5773 5771 5769 5768 5764 5762 5759 5756 5756 5754 5752 5750 5747 5747 5746 5745 5743 5742 5742 5743 5745 5746 5747 5748 5749 5748 5747 5744 5742 5739 5737 5735 5731 5727 5724 5720
5775 5756 5741 5744 5752 5750 5763 5754 5764 5781 5785 5779 5772 5769 5768 5765 5761 5758 5754 5752 5749 5747 5746 5743 5741 5738 5738 5736 5735 5734 5733 5733 5733 5735 5736 5736 5737 5739 5740 5739 5737 5735 5734 5732 5729 5725 5721 5718 5714
5762 5753 5730 5714 5724 5743 5762 5761 5776 5785 5783 5780 5775 5770 5764 5760 5757 5753 5750 5748 5745 5742 5739 5736 5733 5729 5728 5727 5725 5725 5724 5724 5724 5725 5725 5725 5726 5728 5730 5730 5728 5727 5726 5724 5721 5718 5714 5711 5707
5756 5753 5758 5736 5733 5731 5752 5771 5770 5773 5767 5766 5764 5762 5757 5754 5751 5748 5747 5744 5741 5737 5733 5730 5726 5722 5720 5718 5716 5715 5714 5712 5711 5712 5712 5713 5714 5716 5718 5718 5716 5715 5714 5712 5710 5706 5704 5701 5698
5770 5761 5747 5730 5710 5708 5730 5746 5748 5750 5752 5754 5753 5751 5750 5750 5747 5744 5741 5739 5736 5732 5728 5725 5720 5715 5712 5710 5707 5706 5703 5701 5699 5698 5698 5699 5699 5700 5702 5702 5701 5700 5701 5701 5699 5696 5693 5690 5688
5763 5756 5748 5739 5730 5709 5704 5727 5764 5757 5753 5749 5749 5750 5748 5745 5743 5739 5736 5733 5729 5726 5721 5716 5713 5709 5704 5701 5697 5694 5691 5689 5687 5685 5685 5685 5686 5686 5686 5686 5686 5686 5687 5688 5687 5685 5684 5681 5679
5769 5756 5745 5722 5718 5720 5710 5724 5767 5760 5755 5751 5747 5747 5746 5743 5739 5736 5732 5727 5722 5716 5712 5708 5705 5700 5697 5693 5689 5685 5681 5677 5674 5671 5670 5671 5671 5672 5672 5672 5672 5672 5673 5675 5674 5673 5672 5670 5668